| time (UTC) | temp F | wind direction | speed knots | gust knots | rain 1hr in | rain 24hr in | rain mn in | humidity % | barometer mb |
| 20260905185017 | 84 | 315 | 2.6 | 5.2 | 0.00 | 0.00 | 0.00 | 46 | 1024.3 |
| 20260905184017 | 84 | 270 | 3.5 | 4.3 | 0.00 | 0.00 | 0.00 | 45 | 1024.4 |
| 20260905183017 | 85 | 270 | 3.5 | 5.2 | 0.00 | 0.00 | 0.00 | 45 | 1024.3 |
| 20260905182017 | 85 | 270 | 2.6 | 5.2 | 0.00 | 0.00 | 0.00 | 44 | 1024.1 |
| 20260905181037 | 86 | 248 | 3.5 | 5.2 | 0.00 | 0.00 | 0.00 | 44 | 1024.0 |
| 20260905180037 | 86 | 225 | 3.5 | 6.1 | 0.00 | 0.00 | 0.00 | 42 | 1023.9 |
| 20260905175037 | 87 | 0 | 3.5 | 7.0 | 0.00 | 0.00 | 0.00 | 42 | 1024.0 |
| 20260905174017 | 87 | 0 | 3.5 | 6.1 | 0.00 | 0.00 | 0.00 | 41 | 1024.0 |
| 20260905173037 | 88 | 0 | 2.6 | 6.1 | 0.00 | 0.00 | 0.00 | 40 | 1024.0 |
| 20260905172017 | 88 | 0 | 4.3 | 7.0 | 0.00 | 0.00 | 0.00 | 39 | 1024.0 |
| 20260905171037 | 89 | 0 | 3.5 | 7.8 | 0.00 | 0.00 | 0.00 | 39 | 1024.0 |
| 20260905170017 | 89 | 0 | 4.3 | 11.3 | 0.00 | 0.00 | 0.00 | 38 | 1024.0 |
| 20260905165017 | 89 | 0 | 5.2 | 12.2 | 0.00 | 0.00 | 0.00 | 38 | 1023.7 |
| 20260905164017 | 90 | 0 | 5.2 | 10.4 | 0.00 | 0.00 | 0.00 | 38 | 1023.7 |
| 20260905163018 | 90 | 0 | 5.2 | 10.4 | 0.00 | 0.00 | 0.00 | 37 | 1023.6 |
| 20260905162017 | 90 | 0 | 7.0 | 13.0 | 0.00 | 0.00 | 0.00 | 37 | 1023.6 |
| 20260905161037 | 91 | 0 | 7.0 | 13.0 | 0.00 | 0.00 | 0.00 | 37 | 1023.5 |
| 20260905160017 | 91 | 0 | 7.8 | 13.9 | 0.00 | 0.00 | 0.00 | 37 | 1023.4 |
| 20260905155017 | 91 | 0 | 10.4 | 18.2 | 0.00 | 0.00 | 0.00 | 37 | 1023.5 |
| 20260905154017 | 92 | 0 | 7.0 | 18.2 | 0.00 | 0.00 | 0.00 | 36 | 1023.4 |
| 20260905153017 | 92 | 0 | 10.4 | 20.0 | 0.00 | 0.00 | 0.00 | 36 | 1023.3 |
| 20260905152017 | 93 | 0 | 7.8 | 13.9 | 0.00 | 0.00 | 0.00 | 36 | 1023.3 |
| 20260905151017 | 93 | 0 | 7.8 | 17.4 | 0.00 | 0.00 | 0.00 | 35 | 1023.3 |
| 20260905150017 | 94 | 0 | 8.7 | 15.6 | 0.00 | 0.00 | 0.00 | 33 | 1023.5 |
| 20260905145037 | 94 | 0 | 8.7 | 16.5 | 0.00 | 0.00 | 0.00 | 31 | 1023.3 |
| 20260905144017 | 94 | 0 | 10.4 | 17.4 | 0.00 | 0.00 | 0.00 | 31 | 1023.3 |
| 20260905143016 | 95 | 0 | 8.7 | 18.2 | 0.00 | 0.00 | 0.00 | 30 | 1023.3 |
| 20260905142017 | 94 | 0 | 9.6 | 19.1 | 0.00 | 0.00 | 0.00 | 30 | 1023.4 |
| 20260905141017 | 95 | 0 | 8.7 | 18.2 | 0.00 | 0.00 | 0.00 | 31 | 1023.6 |
| 20260905140016 | 95 | 0 | 8.7 | 18.2 | 0.00 | 0.00 | 0.00 | 30 | 1023.5 |
| 20260905135017 | 95 | 0 | 7.8 | 15.6 | 0.00 | 0.00 | 0.00 | 30 | 1023.6 |
| 20260905134017 | 95 | 0 | 9.6 | 19.1 | 0.00 | 0.00 | 0.00 | 30 | 1023.7 |
| 20260905133016 | 95 | 0 | 7.8 | 15.6 | 0.00 | 0.00 | 0.00 | 31 | 1023.7 |
| 20260905132017 | 94 | 0 | 7.8 | 15.6 | 0.00 | 0.00 | 0.00 | 31 | 1023.8 |
| 20260905131016 | 94 | 0 | 8.7 | 16.5 | 0.00 | 0.00 | 0.00 | 32 | 1023.9 |
| 20260905130016 | 94 | 203 | 9.6 | 16.5 | 0.00 | 0.00 | 0.00 | 33 | 1024.0 |
| 20260905125016 | 94 | 180 | 7.8 | 17.4 | 0.00 | 0.00 | 0.00 | 33 | 1024.2 |
| 20260905124016 | 94 | 0 | 8.7 | 19.1 | 0.00 | 0.00 | 0.00 | 33 | 1024.2 |
| 20260905123016 | 94 | 0 | 7.8 | 13.9 | 0.00 | 0.00 | 0.00 | 32 | 1024.2 |
| 20260905122016 | 94 | 203 | 7.0 | 16.5 | 0.00 | 0.00 | 0.00 | 32 | 1024.2 |
| 20260905121016 | 93 | 203 | 7.8 | 14.8 | 0.00 | 0.00 | 0.00 | 32 | 1024.2 |
| 20260905120016 | 93 | 225 | 7.8 | 14.8 | 0.00 | 0.00 | 0.00 | 32 | 1024.4 |
| 20260905115016 | 93 | 203 | 6.1 | 13.9 | 0.00 | 0.00 | 0.00 | 33 | 1024.6 |
| 20260905114016 | 92 | 0 | 6.1 | 12.2 | 0.00 | 0.00 | 0.00 | 35 | 1024.5 |
| 20260905113036 | 91 | 0 | 5.2 | 12.2 | 0.00 | 0.00 | 0.00 | 36 | 1024.7 |
| 20260905112036 | 91 | 0 | 5.2 | 10.4 | 0.00 | 0.00 | 0.00 | 38 | 1024.7 |
| 20260905111017 | 90 | 158 | 4.3 | 9.6 | 0.00 | 0.00 | 0.00 | 38 | 1024.8 |
| 20260905110016 | 89 | 203 | 4.3 | 9.6 | 0.00 | 0.00 | 0.00 | 40 | 1024.8 |
| 20260905105036 | 89 | 180 | 4.3 | 7.0 | 0.00 | 0.00 | 0.00 | 40 | 1025.0 |
| 20260905104016 | 89 | 158 | 3.5 | 7.0 | 0.00 | 0.00 | 0.00 | 41 | 1025.1 |
| 20260905103018 | 89 | 180 | 1.7 | 4.3 | 0.00 | 0.00 | 0.00 | 41 | 1025.2 |
| 20260905102018 | 88 | 180 | 2.6 | 5.2 | 0.00 | 0.00 | 0.00 | 41 | 1025.4 |
| 20260905101018 | 88 | 180 | 1.7 | 5.2 | 0.00 | 0.00 | 0.00 | 42 | 1025.5 |
| 20260905100018 | 88 | 135 | 1.7 | 5.2 | 0.00 | 0.00 | 0.00 | 43 | 1025.6 |
| 20260905095018 | 87 | 135 | 1.7 | 3.5 | 0.00 | 0.00 | 0.00 | 44 | 1025.7 |
| 20260905094038 | 87 | 158 | 1.7 | 4.3 | 0.00 | 0.00 | 0.00 | 44 | 1025.6 |
| 20260905093018 | 87 | 113 | 1.7 | 5.2 | 0.00 | 0.00 | 0.00 | 44 | 1025.6 |
| 20260905092018 | 87 | 225 | 0.9 | 3.5 | 0.00 | 0.00 | 0.00 | 43 | 1025.7 |
| 20260905091018 | 87 | 0 | 0.9 | 1.7 | 0.00 | 0.00 | 0.00 | 43 | 1025.7 |
| 20260905090018 | 86 | 113 | 1.7 | 4.3 | 0.00 | 0.00 | 0.00 | 43 | 1025.7 |
| 20260905085018 | 85 | 0 | 0.9 | 2.6 | 0.00 | 0.00 | 0.00 | 44 | 1025.6 |
| 20260905084018 | 84 | 90 | 0.9 | 2.6 | 0.00 | 0.00 | 0.00 | 45 | 1025.5 |
| 20260905083038 | 83 | 90 | 1.7 | 2.6 | 0.00 | 0.00 | 0.00 | 46 | 1025.3 |
| 20260905082018 | 82 | 90 | 1.7 | 5.2 | 0.00 | 0.00 | 0.00 | 46 | 1025.2 |
| 20260905081017 | 80 | 90 | 0.9 | 2.6 | 0.00 | 0.00 | 0.00 | 50 | 1025.0 |
| 20260905080017 | 78 | 45 | 3.5 | 5.2 | 0.00 | 0.00 | 0.00 | 51 | 1024.8 |
| 20260905075018 | 77 | 45 | 4.3 | 7.0 | 0.00 | 0.00 | 0.00 | 53 | 1024.8 |
| 20260905074037 | 76 | 45 | 5.2 | 7.8 | 0.00 | 0.00 | 0.00 | 54 | 1024.7 |
| 20260905073038 | 75 | 45 | 6.1 | 8.7 | 0.00 | 0.00 | 0.00 | 55 | 1024.6 |
| 20260905072018 | 75 | 45 | 5.2 | 7.8 | 0.00 | 0.00 | 0.00 | 55 | 1024.7 |
| 20260905071018 | 74 | 45 | 6.1 | 10.4 | 0.00 | 0.00 | 0.00 | 56 | 1024.6 |
| 20260905070037 | 74 | 68 | 5.2 | 8.7 | 0.00 | 0.00 | 0.00 | 56 | 1024.6 |
| 20260905065018 | 74 | 45 | 4.3 | 7.0 | 0.00 | 0.00 | 0.00 | 56 | 1024.6 |
| 20260905064018 | 73 | 45 | 4.3 | 7.0 | 0.00 | 0.00 | 0.00 | 56 | 1024.5 |
| 20260905063017 | 73 | 45 | 5.2 | 7.0 | 0.00 | 0.00 | 0.00 | 57 | 1024.2 |
| 20260905062017 | 72 | 45 | 4.3 | 7.8 | 0.00 | 0.00 | 0.00 | 58 | 1024.3 |
| 20260905061017 | 72 | 23 | 5.2 | 8.7 | 0.00 | 0.00 | 0.00 | 59 | 1024.2 |
| 20260905060037 | 71 | 23 | 5.2 | 7.8 | 0.00 | 0.00 | 0.00 | 60 | 1024.0 |
| 20260905055017 | 71 | 45 | 6.1 | 8.7 | 0.00 | 0.00 | 0.00 | 60 | 1024.0 |
| 20260905054017 | 71 | 45 | 6.1 | 7.8 | 0.00 | 0.00 | 0.00 | 60 | 1024.2 |
| 20260905053017 | 72 | 45 | 7.0 | 10.4 | 0.00 | 0.00 | 0.00 | 60 | 1024.1 |
| 20260905052017 | 73 | 45 | 6.1 | 10.4 | 0.00 | 0.00 | 0.00 | 58 | 1024.1 |
| 20260905051017 | 72 | 45 | 1.7 | 4.3 | 0.00 | 0.00 | 0.00 | 61 | 1024.3 |
| 20260905050017 | 72 | 45 | 5.2 | 7.0 | 0.00 | 0.00 | 0.00 | 60 | 1024.2 |
| 20260905045017 | 73 | 45 | 5.2 | 8.7 | 0.00 | 0.00 | 0.00 | 60 | 1024.2 |
| 20260905044017 | 72 | 45 | 5.2 | 8.7 | 0.00 | 0.00 | 0.00 | 60 | 1024.2 |
| 20260905043017 | 72 | 45 | 5.2 | 7.8 | 0.00 | 0.00 | 0.00 | 60 | 1024.1 |
| 20260905042037 | 72 | 45 | 5.2 | 7.8 | 0.00 | 0.00 | 0.00 | 61 | 1024.1 |
| 20260905041017 | 72 | 45 | 6.1 | 7.8 | 0.00 | 0.00 | 0.00 | 61 | 1024.2 |
| 20260905040037 | 73 | 45 | 4.3 | 7.0 | 0.00 | 0.00 | 0.00 | 61 | 1024.1 |
| 20260905035017 | 73 | 45 | 5.2 | 8.7 | 0.00 | 0.00 | 0.00 | 61 | 1024.1 |
| 20260905034017 | 73 | 45 | 7.0 | 9.6 | 0.00 | 0.00 | 0.00 | 61 | 1024.3 |
| 20260905033017 | 73 | 45 | 5.2 | 7.8 | 0.00 | 0.00 | 0.00 | 62 | 1024.2 |
| 20260905032017 | 73 | 45 | 6.1 | 9.6 | 0.00 | 0.00 | 0.00 | 63 | 1024.3 |
| 20260905031017 | 73 | 45 | 7.8 | 10.4 | 0.00 | 0.00 | 0.00 | 62 | 1024.2 |
| 20260905030037 | 74 | 68 | 3.5 | 8.7 | 0.00 | 0.00 | 0.00 | 61 | 1024.4 |
| 20260905025017 | 74 | 23 | 1.7 | 4.3 | 0.00 | 0.00 | 0.00 | 60 | 1024.3 |
| 20260905024017 | 74 | 45 | 3.5 | 6.1 | 0.00 | 0.00 | 0.00 | 61 | 1024.2 |
| 20260905023016 | 73 | 45 | 5.2 | 7.0 | 0.00 | 0.00 | 0.00 | 62 | 1024.2 |
| 20260905022017 | 73 | 45 | 5.2 | 7.8 | 0.00 | 0.00 | 0.00 | 63 | 1024.1 |
| 20260905021017 | 74 | 45 | 5.2 | 7.8 | 0.00 | 0.00 | 0.00 | 62 | 1024.2 |
| 20260905020017 | 73 | 45 | 6.1 | 7.8 | 0.00 | 0.00 | 0.00 | 65 | 1024.2 |
| 20260905015017 | 74 | 45 | 5.2 | 7.0 | 0.00 | 0.00 | 0.00 | 63 | 1024.2 |
| 20260905014037 | 75 | 45 | 5.2 | 7.8 | 0.00 | 0.00 | 0.00 | 62 | 1024.3 |
| 20260905013017 | 75 | 45 | 6.1 | 9.6 | 0.00 | 0.00 | 0.00 | 63 | 1024.3 |
| 20260905012024 | 75 | 45 | 5.2 | 7.0 | 0.00 | 0.00 | 0.00 | 63 | 1024.5 |
| 20260905011028 | 75 | 45 | 4.3 | 6.1 | 0.00 | 0.00 | 0.00 | 63 | 1024.2 |
| 20260905010028 | 75 | 45 | 4.3 | 6.1 | 0.00 | 0.00 | 0.00 | 63 | 1024.2 |
| 20260905005028 | 76 | 45 | 4.3 | 6.1 | 0.00 | 0.00 | 0.00 | 63 | 1024.4 |
| 20260905004028 | 76 | 23 | 1.7 | 4.3 | 0.00 | 0.00 | 0.00 | 63 | 1024.4 |
| 20260905003029 | 76 | 23 | 3.5 | 7.8 | 0.00 | 0.00 | 0.00 | 63 | 1024.4 |
| 20260905002028 | 76 | 23 | 4.3 | 7.8 | 0.00 | 0.00 | 0.00 | 63 | 1024.4 |
| 20260905001028 | 75 | 45 | 3.5 | 5.2 | 0.00 | 0.00 | 0.00 | 65 | 1024.3 |
| 20260905000028 | 75 | 45 | 4.3 | 7.0 | 0.00 | 0.00 | 0.00 | 66 | 1024.4 |
| 20260904235028 | 76 | 68 | 5.2 | 7.8 | 0.00 | 0.00 | 0.00 | 65 | 1024.4 |
| 20260904234029 | 76 | 45 | 5.2 | 8.7 | 0.00 | 0.00 | 0.00 | 64 | 1024.3 |
| 20260904233029 | 76 | 45 | 2.6 | 7.0 | 0.00 | 0.00 | 0.00 | 65 | 1024.2 |
| 20260904232029 | 77 | 23 | 1.7 | 4.3 | 0.00 | 0.00 | 0.00 | 64 | 1024.4 |
| 20260904231028 | 77 | 23 | 4.3 | 8.7 | 0.00 | 0.00 | 0.00 | 64 | 1024.2 |
| 20260904230028 | 77 | 45 | 5.2 | 7.8 | 0.00 | 0.00 | 0.00 | 64 | 1024.2 |
| 20260904225029 | 77 | 45 | 4.3 | 7.0 | 0.00 | 0.00 | 0.00 | 65 | 1024.1 |
| 20260904224028 | 77 | 45 | 5.2 | 7.8 | 0.00 | 0.00 | 0.00 | 65 | 1024.0 |
| 20260904223028 | 77 | 45 | 4.3 | 6.1 | 0.00 | 0.00 | 0.00 | 64 | 1024.0 |
| 20260904222028 | 78 | 45 | 2.6 | 6.1 | 0.00 | 0.00 | 0.00 | 64 | 1024.2 |
| 20260904221028 | 78 | 23 | 4.3 | 7.0 | 0.00 | 0.00 | 0.00 | 63 | 1024.0 |
| 20260904220028 | 78 | 45 | 5.2 | 7.8 | 0.00 | 0.00 | 0.00 | 64 | 1023.9 |
| 20260904215028 | 79 | 68 | 5.2 | 7.8 | 0.00 | 0.00 | 0.00 | 63 | 1024.0 |
| 20260904214028 | 80 | 23 | 5.2 | 7.8 | 0.00 | 0.00 | 0.00 | 62 | 1024.2 |
| 20260904213028 | 80 | 23 | 5.2 | 8.7 | 0.00 | 0.00 | 0.00 | 61 | 1024.2 |
| 20260904212028 | 80 | 0 | 4.3 | 6.1 | 0.00 | 0.00 | 0.00 | 62 | 1024.3 |
| 20260904211029 | 80 | 0 | 3.5 | 6.1 | 0.00 | 0.00 | 0.00 | 61 | 1024.2 |
| 20260904210028 | 80 | 23 | 3.5 | 6.1 | 0.00 | 0.00 | 0.00 | 61 | 1024.2 |
| 20260904205048 | 81 | 338 | 5.2 | 7.8 | 0.00 | 0.00 | 0.00 | 61 | 1024.3 |
| 20260904204048 | 81 | 338 | 5.2 | 7.8 | 0.00 | 0.00 | 0.00 | 61 | 1024.1 |
| 20260904203028 | 81 | 338 | 4.3 | 7.0 | 0.00 | 0.00 | 0.00 | 61 | 1024.2 |
| 20260904202028 | 81 | 338 | 4.3 | 7.0 | 0.00 | 0.00 | 0.00 | 60 | 1024.1 |
| 20260904201028 | 82 | 338 | 3.5 | 6.1 | 0.00 | 0.00 | 0.00 | 60 | 1023.9 |
| 20260904200028 | 82 | 338 | 3.5 | 5.2 | 0.00 | 0.00 | 0.00 | 59 | 1023.9 |
| 20260904195048 | 83 | 315 | 2.6 | 4.3 | 0.00 | 0.00 | 0.00 | 58 | 1023.8 |
| 20260904194028 | 84 | 180 | 0.9 | 2.6 | 0.00 | 0.00 | 0.00 | 57 | 1023.7 |
| 20260904193028 | 84 | 248 | 2.6 | 4.3 | 0.00 | 0.00 | 0.00 | 56 | 1023.6 |
| 20260904192028 | 85 | 203 | 2.6 | 5.2 | 0.00 | 0.00 | 0.00 | 55 | 1023.5 |
| 20260904191028 | 85 | 203 | 2.6 | 6.1 | 0.00 | 0.00 | 0.00 | 55 | 1023.2 |
| 20260904190048 | 86 | 248 | 2.6 | 5.2 | 0.00 | 0.00 | 0.00 | 53 | 1023.0 |